Year,Month,Day,Hour,Minute,Value (Times are PST for temperature in C)
2017,07,21,00,00,15.20
2017,07,21,00,01,15.20
2017,07,21,00,02,15.20
2017,07,21,00,03,15.20
2017,07,21,00,04,15.20
2017,07,21,00,05,15.20
2017,07,21,00,06,15.20
2017,07,21,00,07,15.20
2017,07,21,00,08,15.20
2017,07,21,00,09,15.20
2017,07,21,00,10,15.20
2017,07,21,00,11,15.20
2017,07,21,00,12,15.20
2017,07,21,00,13,15.20
2017,07,21,00,14,15.20
2017,07,21,00,15,15.20
2017,07,21,00,16,15.20
2017,07,21,00,17,15.20
2017,07,21,00,18,15.30
2017,07,21,00,19,15.30
2017,07,21,00,20,15.30
2017,07,21,00,21,15.30
2017,07,21,00,22,15.30
2017,07,21,00,23,15.30
2017,07,21,00,24,15.30
2017,07,21,00,25,15.30
2017,07,21,00,26,15.30
2017,07,21,00,27,15.30
2017,07,21,00,28,15.30
2017,07,21,00,29,15.30
2017,07,21,00,30,15.30
2017,07,21,00,31,15.20
2017,07,21,00,32,15.20
2017,07,21,00,33,15.20
2017,07,21,00,34,15.10
2017,07,21,00,35,15.10
2017,07,21,00,36,15.10
2017,07,21,00,37,15.00
2017,07,21,00,38,14.90
2017,07,21,00,39,14.90
2017,07,21,00,40,14.90
2017,07,21,00,41,14.80
2017,07,21,00,42,14.80
2017,07,21,00,43,14.70
2017,07,21,00,44,14.70
2017,07,21,00,45,14.70
2017,07,21,00,46,14.70
2017,07,21,00,47,14.80
2017,07,21,00,48,14.80
2017,07,21,00,49,14.80
2017,07,21,00,50,14.80
2017,07,21,00,51,14.80
2017,07,21,00,52,14.90
2017,07,21,00,53,14.90
2017,07,21,00,54,14.90
2017,07,21,00,55,14.90
2017,07,21,00,56,14.90
2017,07,21,00,57,15.00
2017,07,21,00,58,15.00
2017,07,21,00,59,15.10
2017,07,21,01,00,15.10
2017,07,21,01,01,15.10
2017,07,21,01,02,15.20
2017,07,21,01,03,15.20
2017,07,21,01,04,15.30
2017,07,21,01,05,15.30
2017,07,21,01,06,15.40
2017,07,21,01,07,15.40
2017,07,21,01,08,15.40
2017,07,21,01,09,15.50
2017,07,21,01,10,15.50
2017,07,21,01,11,15.50
2017,07,21,01,12,15.60
2017,07,21,01,13,15.60
2017,07,21,01,14,15.60
2017,07,21,01,15,15.60
2017,07,21,01,16,15.60
2017,07,21,01,17,15.60
2017,07,21,01,18,15.70
2017,07,21,01,19,15.70
2017,07,21,01,20,15.70
2017,07,21,01,21,15.70
2017,07,21,01,22,15.70
2017,07,21,01,23,15.70
2017,07,21,01,24,15.70
2017,07,21,01,25,15.70
2017,07,21,01,26,15.70
2017,07,21,01,27,15.70
2017,07,21,01,28,15.80
2017,07,21,01,29,15.80
2017,07,21,01,30,15.80
2017,07,21,01,31,15.80
2017,07,21,01,32,15.80
2017,07,21,01,33,15.80
2017,07,21,01,34,15.80
2017,07,21,01,35,15.80
2017,07,21,01,36,15.80
2017,07,21,01,37,15.80
2017,07,21,01,38,15.80
2017,07,21,01,39,15.90
2017,07,21,01,40,15.80
2017,07,21,01,41,15.80
2017,07,21,01,42,15.80
2017,07,21,01,43,15.80
2017,07,21,01,44,15.80
2017,07,21,01,45,15.80
2017,07,21,01,46,15.80
2017,07,21,01,47,15.80
2017,07,21,01,48,15.80
2017,07,21,01,49,15.80
2017,07,21,01,50,15.80
2017,07,21,01,51,15.80
2017,07,21,01,52,15.80
2017,07,21,01,53,15.80
2017,07,21,01,54,15.70
2017,07,21,01,55,15.70
2017,07,21,01,56,15.60
2017,07,21,01,57,15.60
2017,07,21,01,58,15.50
2017,07,21,01,59,15.50
2017,07,21,02,00,15.40
2017,07,21,02,01,15.40
2017,07,21,02,02,15.30
2017,07,21,02,03,15.30
2017,07,21,02,04,15.20
2017,07,21,02,05,15.20
2017,07,21,02,06,15.20
2017,07,21,02,07,15.20
2017,07,21,02,08,15.10
2017,07,21,02,09,15.10
2017,07,21,02,10,15.10
2017,07,21,02,11,15.10
2017,07,21,02,12,15.00
2017,07,21,02,13,15.00
2017,07,21,02,14,15.00
2017,07,21,02,15,14.90
2017,07,21,02,16,14.90
2017,07,21,02,17,14.90
2017,07,21,02,18,14.80
2017,07,21,02,19,14.80
2017,07,21,02,20,14.80
2017,07,21,02,21,14.80
2017,07,21,02,22,14.80
2017,07,21,02,23,14.80
2017,07,21,02,24,14.80
2017,07,21,02,25,14.80
2017,07,21,02,26,14.80
2017,07,21,02,27,14.80
2017,07,21,02,28,14.80
2017,07,21,07,00,13.80
2017,07,21,07,01,13.80
2017,07,21,07,02,13.80
2017,07,21,07,03,13.80
2017,07,21,07,04,13.80
2017,07,21,07,05,13.80
2017,07,21,07,06,13.80
2017,07,21,07,07,13.80
2017,07,21,07,08,13.90
2017,07,21,07,09,13.90
2017,07,21,07,10,13.90
2017,07,21,07,11,13.90
2017,07,21,07,12,13.90
2017,07,21,07,13,14.00
2017,07,21,07,14,14.00
2017,07,21,07,15,14.00
2017,07,21,07,16,14.10
2017,07,21,07,17,14.10
2017,07,21,07,18,14.10
2017,07,21,07,19,14.10
2017,07,21,07,20,14.10
2017,07,21,07,21,14.20
2017,07,21,07,22,14.20
2017,07,21,07,23,14.20
2017,07,21,07,24,14.30
2017,07,21,07,25,14.30
2017,07,21,07,26,14.30
2017,07,21,07,27,14.30
2017,07,21,07,28,14.40
2017,07,21,07,29,14.40
2017,07,21,07,30,14.40
2017,07,21,07,31,14.50
2017,07,21,07,32,14.50
2017,07,21,07,33,14.50
2017,07,21,07,34,14.60
2017,07,21,07,35,14.60
2017,07,21,07,36,14.60
2017,07,21,07,37,14.70
2017,07,21,07,38,14.70
2017,07,21,07,39,14.70
2017,07,21,07,40,14.80
2017,07,21,07,41,14.80
2017,07,21,07,42,14.80
2017,07,21,07,43,14.80
2017,07,21,07,44,14.90
2017,07,21,07,45,14.90
2017,07,21,07,46,14.90
2017,07,21,07,47,14.90
2017,07,21,07,48,14.90
2017,07,21,07,49,14.90
2017,07,21,07,50,14.90
2017,07,21,07,51,14.90
2017,07,21,07,52,14.90
2017,07,21,07,53,14.90
2017,07,21,07,54,14.90
2017,07,21,07,55,15.00
2017,07,21,07,56,15.00
2017,07,21,07,57,15.00
2017,07,21,07,58,15.10
2017,07,21,07,59,15.10
2017,07,21,08,00,15.10
2017,07,21,08,01,15.10
2017,07,21,08,02,15.10
2017,07,21,08,03,15.10
2017,07,21,08,04,15.10
2017,07,21,08,05,15.10
2017,07,21,08,06,15.10
2017,07,21,08,07,15.10
2017,07,21,08,08,15.20
2017,07,21,08,09,15.30
2017,07,21,08,10,15.30
2017,07,21,08,11,15.30
2017,07,21,08,12,15.40
2017,07,21,08,13,15.40
2017,07,21,08,14,15.40
2017,07,21,08,15,15.40
2017,07,21,08,16,15.40
2017,07,21,08,17,15.40
2017,07,21,08,18,15.50
2017,07,21,08,19,15.50
2017,07,21,08,20,15.50
2017,07,21,08,21,15.50
2017,07,21,08,22,15.60
2017,07,21,08,23,15.70
2017,07,21,08,24,15.70
2017,07,21,08,25,15.80
2017,07,21,08,26,15.80
2017,07,21,08,27,15.80
2017,07,21,08,28,15.80
2017,07,21,08,29,15.90
2017,07,21,08,30,15.90
2017,07,21,08,31,16.00
2017,07,21,08,32,16.00
2017,07,21,08,33,16.10
2017,07,21,08,34,16.20
2017,07,21,08,35,16.20
2017,07,21,08,36,16.30
2017,07,21,08,37,16.40
2017,07,21,08,38,16.40
2017,07,21,08,39,16.50
2017,07,21,08,40,16.50
2017,07,21,08,41,16.50
2017,07,21,08,42,16.60
2017,07,21,08,43,16.60
2017,07,21,08,44,16.60
2017,07,21,08,45,16.60
2017,07,21,08,46,16.70
2017,07,21,08,47,16.70
2017,07,21,08,48,16.80
2017,07,21,08,49,16.80
2017,07,21,08,50,16.80
2017,07,21,08,51,16.80
2017,07,21,08,52,16.80
2017,07,21,08,53,16.80
2017,07,21,08,54,16.80
2017,07,21,08,55,16.90
2017,07,21,08,56,16.90
2017,07,21,08,57,17.00
2017,07,21,08,58,17.00
2017,07,21,08,59,17.00
2017,07,21,09,00,17.10
2017,07,21,09,01,17.10
2017,07,21,09,02,17.20
2017,07,21,09,03,17.20
2017,07,21,09,04,17.30
2017,07,21,09,05,17.40
2017,07,21,09,06,17.40
2017,07,21,09,07,17.40
2017,07,21,09,08,17.40
2017,07,21,09,09,17.40
2017,07,21,09,10,17.40
2017,07,21,09,11,17.30
2017,07,21,09,12,17.30
2017,07,21,09,13,17.30
2017,07,21,09,14,17.30
2017,07,21,09,15,17.20
2017,07,21,09,16,17.20
2017,07,21,09,17,17.20
2017,07,21,09,18,17.20
2017,07,21,09,19,17.10
2017,07,21,09,20,17.10
2017,07,21,09,21,17.10
2017,07,21,09,22,17.10
2017,07,21,09,23,17.10
2017,07,21,09,24,17.10
2017,07,21,09,25,17.20
2017,07,21,09,26,17.20
2017,07,21,09,27,17.20
2017,07,21,09,28,17.20
2017,07,21,09,29,17.30
2017,07,21,09,30,17.30
2017,07,21,09,31,17.20
2017,07,21,09,32,17.20
2017,07,21,09,33,17.20
2017,07,21,09,34,17.20
2017,07,21,09,35,17.10
2017,07,21,09,36,17.10
2017,07,21,09,37,17.00
2017,07,21,09,38,16.90
2017,07,21,09,39,16.90
2017,07,21,09,40,16.80
2017,07,21,09,41,16.80
2017,07,21,09,42,16.80
2017,07,21,09,43,16.90
2017,07,21,09,44,16.90
2017,07,21,09,45,16.90
2017,07,21,09,46,17.00
2017,07,21,09,47,17.00
2017,07,21,09,48,17.00
2017,07,21,09,49,17.10
2017,07,21,09,50,17.10
2017,07,21,09,51,17.10
2017,07,21,09,52,17.10
2017,07,21,09,53,17.10
2017,07,21,09,54,17.00
2017,07,21,09,55,16.90
2017,07,21,09,56,16.80
2017,07,21,09,57,16.80
2017,07,21,09,58,16.80
2017,07,21,09,59,16.80
2017,07,21,10,00,16.70
2017,07,21,10,01,16.60
2017,07,21,10,02,16.50
2017,07,21,10,03,16.50
2017,07,21,10,04,16.50
2017,07,21,10,05,16.50
2017,07,21,10,06,16.50
2017,07,21,10,07,16.60
2017,07,21,10,08,16.60
2017,07,21,10,09,16.60
2017,07,21,10,10,16.70
2017,07,21,10,11,16.70
2017,07,21,10,12,16.80
2017,07,21,10,13,16.90
2017,07,21,10,14,16.90
2017,07,21,10,15,17.00
2017,07,21,10,16,17.00
2017,07,21,10,17,17.10
2017,07,21,10,18,17.10
2017,07,21,10,19,17.30
2017,07,21,10,20,17.40
2017,07,21,10,21,17.50
2017,07,21,10,22,17.50
2017,07,21,10,23,17.60
2017,07,21,10,24,17.60
2017,07,21,10,25,17.70
2017,07,21,10,26,17.80
2017,07,21,10,27,17.80
2017,07,21,10,28,17.80
2017,07,21,10,29,17.80
2017,07,21,10,30,17.80
2017,07,21,10,31,17.90
2017,07,21,10,32,17.90
2017,07,21,10,33,18.00
2017,07,21,10,34,18.10
2017,07,21,10,35,18.20
2017,07,21,10,36,18.20
2017,07,21,10,37,18.20
2017,07,21,10,38,18.10
2017,07,21,10,39,18.10
2017,07,21,10,40,18.10
2017,07,21,10,41,18.10
2017,07,21,10,42,18.10
2017,07,21,10,43,18.20
2017,07,21,10,44,18.20
2017,07,21,10,45,18.20
2017,07,21,10,46,18.20
2017,07,21,10,47,18.10
2017,07,21,10,48,18.10
2017,07,21,10,49,18.00
2017,07,21,10,50,18.00
2017,07,21,10,51,18.00
2017,07,21,10,52,18.00
2017,07,21,10,53,18.00
2017,07,21,10,54,17.90
2017,07,21,10,55,17.80
2017,07,21,10,56,17.70
2017,07,21,10,57,17.70
2017,07,21,10,58,17.60
2017,07,21,10,59,17.60
2017,07,21,11,00,17.60
2017,07,21,11,01,17.60
2017,07,21,11,02,17.50
2017,07,21,11,03,17.50
2017,07,21,11,04,17.50
2017,07,21,11,05,17.50
2017,07,21,11,06,17.60
2017,07,21,11,07,17.60
2017,07,21,11,08,17.70
2017,07,21,11,09,17.70
2017,07,21,11,10,17.80
2017,07,21,11,11,17.80
2017,07,21,11,12,17.80
2017,07,21,11,13,17.80
2017,07,21,11,14,17.70
2017,07,21,11,15,17.70
2017,07,21,11,16,17.70
2017,07,21,11,17,17.70
2017,07,21,11,18,17.70
2017,07,21,11,19,17.60
2017,07,21,11,20,17.60
2017,07,21,11,21,17.60
2017,07,21,11,22,17.50
2017,07,21,11,23,17.50
2017,07,21,11,24,17.40
2017,07,21,11,25,17.40
2017,07,21,11,26,17.40
2017,07,21,11,27,17.40
2017,07,21,11,28,17.40
2017,07,21,11,29,17.40
2017,07,21,11,30,17.40
2017,07,21,11,31,17.40
2017,07,21,11,32,17.30
2017,07,21,11,33,17.30
2017,07,21,11,34,17.20
2017,07,21,11,35,17.30
2017,07,21,11,36,17.30
2017,07,21,11,37,17.30
2017,07,21,11,38,17.30
2017,07,21,11,39,17.40
2017,07,21,11,40,17.40
2017,07,21,11,41,17.50
2017,07,21,11,42,17.50
2017,07,21,11,43,17.60
2017,07,21,11,44,17.60
2017,07,21,11,45,17.70
2017,07,21,11,46,17.70
2017,07,21,11,47,17.60
2017,07,21,11,48,17.60
2017,07,21,11,49,17.50
2017,07,21,11,50,17.50
2017,07,21,11,51,17.50
2017,07,21,11,52,17.50
2017,07,21,11,53,17.50
2017,07,21,11,54,17.50
2017,07,21,11,55,17.40
2017,07,21,11,56,17.50
2017,07,21,11,57,17.60
2017,07,21,11,58,17.60
2017,07,21,11,59,17.60
2017,07,21,12,00,17.60
2017,07,21,12,01,17.50
2017,07,21,12,02,17.50
2017,07,21,12,03,17.40
2017,07,21,12,04,17.40
2017,07,21,12,05,17.40
2017,07,21,12,06,17.40
2017,07,21,12,07,17.40
2017,07,21,12,08,17.40
2017,07,21,12,09,17.40
2017,07,21,12,10,17.40
2017,07,21,12,11,17.40
2017,07,21,12,12,17.30
2017,07,21,12,13,17.20
2017,07,21,12,14,17.10
2017,07,21,12,15,17.10
2017,07,21,12,16,17.20
2017,07,21,12,17,17.20
2017,07,21,12,18,17.20
2017,07,21,12,19,17.10
2017,07,21,12,20,17.10
2017,07,21,12,21,17.00
2017,07,21,12,22,17.00
2017,07,21,12,23,16.90
2017,07,21,12,24,16.90
2017,07,21,12,25,16.90
2017,07,21,12,26,16.90
2017,07,21,12,27,17.00
2017,07,21,12,28,17.00
2017,07,21,12,29,16.90
2017,07,21,12,30,16.90
2017,07,21,12,31,16.90
2017,07,21,12,32,16.90
2017,07,21,12,33,16.80
2017,07,21,12,34,16.70
2017,07,21,12,35,16.60
2017,07,21,12,36,16.50
2017,07,21,12,37,16.40
2017,07,21,12,38,16.40
2017,07,21,12,39,16.30
2017,07,21,12,40,16.30
2017,07,21,12,41,16.30
2017,07,21,12,42,16.40
2017,07,21,12,43,16.40
2017,07,21,12,44,16.40
2017,07,21,12,45,16.50
2017,07,21,12,46,16.60
2017,07,21,12,47,16.60
2017,07,21,12,48,16.60
2017,07,21,12,49,16.70
2017,07,21,12,50,16.70
2017,07,21,12,51,16.70
2017,07,21,12,52,16.70
2017,07,21,12,53,16.70
2017,07,21,12,54,16.80
2017,07,21,12,55,16.80
2017,07,21,12,56,16.90
2017,07,21,12,57,16.90
2017,07,21,12,58,17.00
2017,07,21,12,59,17.00
2017,07,21,13,00,17.00
2017,07,21,13,01,17.00
2017,07,21,13,02,17.10
2017,07,21,13,03,17.10
2017,07,21,13,04,17.10
2017,07,21,13,05,17.00
2017,07,21,13,06,17.00
2017,07,21,13,07,17.00
2017,07,21,13,08,17.00
2017,07,21,13,09,17.00
2017,07,21,13,10,17.00
2017,07,21,13,11,17.10
2017,07,21,13,12,17.10
2017,07,21,13,13,17.10
2017,07,21,13,14,17.20
2017,07,21,13,15,17.20
2017,07,21,13,16,17.30
2017,07,21,13,17,17.30
2017,07,21,13,18,17.40
2017,07,21,13,19,17.60
2017,07,21,13,20,17.70
2017,07,21,13,21,17.70
2017,07,21,13,22,17.80
2017,07,21,13,23,17.80
2017,07,21,13,24,17.80
2017,07,21,13,25,17.80
2017,07,21,13,26,17.80
2017,07,21,13,27,17.90
2017,07,21,13,28,17.90
2017,07,21,13,29,18.00
2017,07,21,13,30,18.00
2017,07,21,13,31,18.10
2017,07,21,13,32,18.10
2017,07,21,13,33,18.20
2017,07,21,13,34,18.20
2017,07,21,13,35,18.20
2017,07,21,13,36,18.20
2017,07,21,13,37,18.10
2017,07,21,13,38,18.20
2017,07,21,13,39,18.20
2017,07,21,13,40,18.20
2017,07,21,13,41,18.30
2017,07,21,13,42,18.20
2017,07,21,13,43,18.20
2017,07,21,13,44,18.20
2017,07,21,13,45,18.20
2017,07,21,13,46,18.30
2017,07,21,13,47,18.20
2017,07,21,13,48,18.20
2017,07,21,13,49,18.10
2017,07,21,13,50,18.10
2017,07,21,13,51,18.10
2017,07,21,13,52,18.10
2017,07,21,13,53,18.10
2017,07,21,13,54,18.20
2017,07,21,13,55,18.20
2017,07,21,13,56,18.20
2017,07,21,13,57,18.10
2017,07,21,13,58,18.10
2017,07,21,13,59,18.10
2017,07,21,14,00,18.10
2017,07,21,14,01,18.10
2017,07,21,14,02,18.00
2017,07,21,14,03,18.00
2017,07,21,14,04,18.00
2017,07,21,14,05,18.00
2017,07,21,14,06,18.00
2017,07,21,14,07,18.00
2017,07,21,14,08,18.00
2017,07,21,14,09,18.10
2017,07,21,14,10,18.10
2017,07,21,14,11,18.10
2017,07,21,14,12,18.20
2017,07,21,14,13,18.30
2017,07,21,14,14,18.30
2017,07,21,14,15,18.30
2017,07,21,14,16,18.30
2017,07,21,14,17,18.30
2017,07,21,14,18,18.30
2017,07,21,14,19,18.20
2017,07,21,14,20,18.10
2017,07,21,14,21,18.00
2017,07,21,14,22,18.00
2017,07,21,14,23,17.90
2017,07,21,14,24,17.90
2017,07,21,14,25,17.90
2017,07,21,14,26,17.90
2017,07,21,14,27,17.90
2017,07,21,14,28,17.90
2017,07,21,14,29,17.90
2017,07,21,14,30,18.00
2017,07,21,14,31,18.00
2017,07,21,14,32,18.00
2017,07,21,14,33,17.90
2017,07,21,14,34,17.90
2017,07,21,14,35,17.90
2017,07,21,14,36,17.80
2017,07,21,14,37,17.80
2017,07,21,14,38,17.80
2017,07,21,14,39,17.80
2017,07,21,14,40,17.80
2017,07,21,14,41,17.80
2017,07,21,14,42,17.80
2017,07,21,14,43,17.80
2017,07,21,14,44,17.80
2017,07,21,14,45,17.80
2017,07,21,14,46,17.80
2017,07,21,14,47,17.90
2017,07,21,14,48,17.90
2017,07,21,14,49,17.90
2017,07,21,14,50,17.90
2017,07,21,14,51,18.00
2017,07,21,14,52,18.10
2017,07,21,14,53,18.10
2017,07,21,14,54,18.20
2017,07,21,14,55,18.10
2017,07,21,14,56,18.10
2017,07,21,14,57,18.10
2017,07,21,14,58,18.10
2017,07,21,14,59,18.10
2017,07,21,15,00,18.10
2017,07,21,15,01,18.00
2017,07,21,15,02,18.00
2017,07,21,15,03,18.00
2017,07,21,15,04,18.00
2017,07,21,15,05,18.00
2017,07,21,15,06,18.00
2017,07,21,15,07,18.10
2017,07,21,15,08,18.10
2017,07,21,15,09,18.10
2017,07,21,15,10,18.10
2017,07,21,15,11,18.10
2017,07,21,15,12,18.10
2017,07,21,15,13,18.00
2017,07,21,15,14,17.90
2017,07,21,15,15,17.90
2017,07,21,15,16,17.80
2017,07,21,15,17,17.70
2017,07,21,15,18,17.70
2017,07,21,15,19,17.70
2017,07,21,15,20,17.80
2017,07,21,15,21,17.80
2017,07,21,15,22,17.80
2017,07,21,15,23,17.90
2017,07,21,15,24,17.90
2017,07,21,15,25,17.90
2017,07,21,15,26,17.90
2017,07,21,15,27,17.80
2017,07,21,15,28,17.80
2017,07,21,15,29,17.70
2017,07,21,15,30,17.70
2017,07,21,15,31,17.60
2017,07,21,15,32,17.60
2017,07,21,15,33,17.60
2017,07,21,15,34,17.70
2017,07,21,15,35,17.70
2017,07,21,15,36,17.80
2017,07,21,15,37,17.80
2017,07,21,15,38,17.90
2017,07,21,15,39,17.90
2017,07,21,15,40,17.90
2017,07,21,15,41,18.00
2017,07,21,15,42,18.00
2017,07,21,15,43,18.10
2017,07,21,15,44,18.10
2017,07,21,15,45,18.10
2017,07,21,15,46,18.10
2017,07,21,15,47,18.10
2017,07,21,15,48,18.20
2017,07,21,15,49,18.20
2017,07,21,15,50,18.30
2017,07,21,15,51,18.30
2017,07,21,15,52,18.30
2017,07,21,15,53,18.30
2017,07,21,15,54,18.30
2017,07,21,15,55,18.40
2017,07,21,15,56,18.40
2017,07,21,15,57,18.40
2017,07,21,15,58,18.40
2017,07,21,15,59,18.40
2017,07,21,16,00,18.40
2017,07,21,16,01,18.40
2017,07,21,16,02,18.40
2017,07,21,16,03,18.40
2017,07,21,16,04,18.40
2017,07,21,16,05,18.40
2017,07,21,16,06,18.40
2017,07,21,16,07,18.30
2017,07,21,16,08,18.30
2017,07,21,16,09,18.30
2017,07,21,16,10,18.30
2017,07,21,16,11,18.30
2017,07,21,16,12,18.30
2017,07,21,16,13,18.20
2017,07,21,16,14,18.30
2017,07,21,16,15,18.30
2017,07,21,16,16,18.30
2017,07,21,16,17,18.30
2017,07,21,16,18,18.30
2017,07,21,16,19,18.30
2017,07,21,16,20,18.30
2017,07,21,16,21,18.30
2017,07,21,16,22,18.30
2017,07,21,16,23,18.20
2017,07,21,16,24,18.20
2017,07,21,16,25,18.30
2017,07,21,16,26,18.30
2017,07,21,16,27,18.30
2017,07,21,16,28,18.20
2017,07,21,16,29,18.20
2017,07,21,16,30,18.20
2017,07,21,16,31,18.20
2017,07,21,16,32,18.20
2017,07,21,16,33,18.20
2017,07,21,16,34,18.20
2017,07,21,16,35,18.10
2017,07,21,16,36,18.10
2017,07,21,16,37,18.00
2017,07,21,16,38,18.00
2017,07,21,16,39,17.90
2017,07,21,16,40,17.90
2017,07,21,16,41,17.90
2017,07,21,16,42,17.80
2017,07,21,16,43,17.80
2017,07,21,16,44,17.70
2017,07,21,16,45,17.70
2017,07,21,16,46,17.70
2017,07,21,16,47,17.60
2017,07,21,16,48,17.50
2017,07,21,16,49,17.40
2017,07,21,16,50,17.40
2017,07,21,16,51,17.30
2017,07,21,16,52,17.30
2017,07,21,16,53,17.30
2017,07,21,16,54,17.30
2017,07,21,16,55,17.40
2017,07,21,16,56,17.40
2017,07,21,16,57,17.30
2017,07,21,16,58,17.30
2017,07,21,16,59,17.30
2017,07,21,17,00,17.30
2017,07,21,17,01,17.20
2017,07,21,17,02,17.10
2017,07,21,17,03,17.10
2017,07,21,17,04,17.00
2017,07,21,17,05,16.90
2017,07,21,17,06,17.00
2017,07,21,17,07,17.00
2017,07,21,17,08,17.10
2017,07,21,17,09,17.10
2017,07,21,17,10,17.20
2017,07,21,17,11,17.20
2017,07,21,17,12,17.30
2017,07,21,17,13,17.30
2017,07,21,17,14,17.30
2017,07,21,17,15,17.40
2017,07,21,17,16,17.40
2017,07,21,17,17,17.40
2017,07,21,17,18,17.50
2017,07,21,17,19,17.60
2017,07,21,17,20,17.60
2017,07,21,17,21,17.60
2017,07,21,17,22,17.60
2017,07,21,17,23,17.70
2017,07,21,17,24,17.70
2017,07,21,17,25,17.80
2017,07,21,17,26,17.80
2017,07,21,17,27,17.80
2017,07,21,17,28,17.90
2017,07,21,17,29,17.90
2017,07,21,17,30,17.90
2017,07,21,17,31,17.90
2017,07,21,17,32,18.00
2017,07,21,17,33,18.00
2017,07,21,17,34,18.10
2017,07,21,17,35,18.00
2017,07,21,17,36,18.00
2017,07,21,17,37,18.00
2017,07,21,17,38,17.90
2017,07,21,17,39,17.90
2017,07,21,17,40,17.90
2017,07,21,17,41,17.90
2017,07,21,17,42,17.90
2017,07,21,17,43,17.90
2017,07,21,17,44,17.90
2017,07,21,17,45,17.90
2017,07,21,17,46,17.90
2017,07,21,17,47,17.90
2017,07,21,17,48,17.90
2017,07,21,17,49,18.00
2017,07,21,17,50,18.00
2017,07,21,17,51,18.00
2017,07,21,17,52,18.10
2017,07,21,17,53,18.10
2017,07,21,17,54,18.10
2017,07,21,17,55,18.10
2017,07,21,17,56,18.10
2017,07,21,17,57,18.20
2017,07,21,17,58,18.20
2017,07,21,17,59,18.30
2017,07,21,18,00,18.30
2017,07,21,18,01,18.40
2017,07,21,18,02,18.40
2017,07,21,18,03,18.50
2017,07,21,18,04,18.50
2017,07,21,18,05,18.50
2017,07,21,18,06,18.60
2017,07,21,18,07,18.60
2017,07,21,18,08,18.60
2017,07,21,18,09,18.70
2017,07,21,18,10,18.70
2017,07,21,18,11,18.70
2017,07,21,18,12,18.70
2017,07,21,18,13,18.70
2017,07,21,18,14,18.70
2017,07,21,18,15,18.70
2017,07,21,18,16,18.60
2017,07,21,18,17,18.60
2017,07,21,18,18,18.60
2017,07,21,18,19,18.60
2017,07,21,18,20,18.50
2017,07,21,18,21,18.50
2017,07,21,18,22,18.50
2017,07,21,18,23,18.50
2017,07,21,18,24,18.50
2017,07,21,18,25,18.50
2017,07,21,18,26,18.60
2017,07,21,18,27,18.60
2017,07,21,18,28,18.60
2017,07,21,18,29,18.50
2017,07,21,18,30,18.50
2017,07,21,18,31,18.50
2017,07,21,18,32,18.50
2017,07,21,18,33,18.60
2017,07,21,18,34,18.60
2017,07,21,18,35,18.60
2017,07,21,18,36,18.60
2017,07,21,18,37,18.60
2017,07,21,18,38,18.50
2017,07,21,18,39,18.50
2017,07,21,18,40,18.50
2017,07,21,18,41,18.40
2017,07,21,18,42,18.40
2017,07,21,18,43,18.40
2017,07,21,18,44,18.40
2017,07,21,18,45,18.40
2017,07,21,18,46,18.40
2017,07,21,18,47,18.40
2017,07,21,18,48,18.40
2017,07,21,18,49,18.40
2017,07,21,18,50,18.40
2017,07,21,18,51,18.50
2017,07,21,18,52,18.50
2017,07,21,18,53,18.50
2017,07,21,18,54,18.60
2017,07,21,18,55,18.60
2017,07,21,18,56,18.70
2017,07,21,18,57,18.70
2017,07,21,18,58,18.70
2017,07,21,18,59,18.80
2017,07,21,19,00,18.80
2017,07,21,19,01,18.80
2017,07,21,19,02,18.80
2017,07,21,19,03,18.80
2017,07,21,19,04,18.80
2017,07,21,19,05,18.80
2017,07,21,19,06,18.90
2017,07,21,19,07,18.90
2017,07,21,19,08,18.90
2017,07,21,19,09,18.90
2017,07,21,19,10,18.90
2017,07,21,19,11,18.90
2017,07,21,19,12,18.90
2017,07,21,19,13,18.90
2017,07,21,19,14,18.90
2017,07,21,19,15,18.90
2017,07,21,19,16,18.90
2017,07,21,19,17,18.90
2017,07,21,19,18,18.90
2017,07,21,19,19,18.90
2017,07,21,19,20,18.90
2017,07,21,19,21,18.90
2017,07,21,19,22,18.90
2017,07,21,19,23,18.90
2017,07,21,19,24,18.90
2017,07,21,19,25,18.90
2017,07,21,19,26,18.90
2017,07,21,19,27,18.90
2017,07,21,19,28,18.90
2017,07,21,19,29,18.90
2017,07,21,19,30,18.90
2017,07,21,19,31,18.90
2017,07,21,19,32,18.90
2017,07,21,19,33,18.90
2017,07,21,19,34,18.90
2017,07,21,19,35,18.90
2017,07,21,19,36,18.90
2017,07,21,19,37,18.90
2017,07,21,19,38,18.90
2017,07,21,19,39,18.80
2017,07,21,19,40,18.80
2017,07,21,19,41,18.80
2017,07,21,19,42,18.80
2017,07,21,19,43,18.70
2017,07,21,19,44,18.70
2017,07,21,19,45,18.70
2017,07,21,19,46,18.70
2017,07,21,19,47,18.70
2017,07,21,19,48,18.70
2017,07,21,19,49,18.70
2017,07,21,19,50,18.70
2017,07,21,19,51,18.60
2017,07,21,19,52,18.60
2017,07,21,19,53,18.60
2017,07,21,19,54,18.60
2017,07,21,19,55,18.60
2017,07,21,19,56,18.60
2017,07,21,19,57,18.60
2017,07,21,19,58,18.60
2017,07,21,19,59,18.60
2017,07,21,20,00,18.60
2017,07,21,20,01,18.60
2017,07,21,20,02,18.60
2017,07,21,20,03,18.60
2017,07,21,20,04,18.60
2017,07,21,20,05,18.60
2017,07,21,20,06,18.60
2017,07,21,20,07,18.60
2017,07,21,20,08,18.60
2017,07,21,20,09,18.60
2017,07,21,20,10,18.50
2017,07,21,20,11,18.50
2017,07,21,20,12,18.50
2017,07,21,20,13,18.40
2017,07,21,20,14,18.40
2017,07,21,20,15,18.40
2017,07,21,20,16,18.30
2017,07,21,20,17,18.30
2017,07,21,20,18,18.30
2017,07,21,20,19,18.30
2017,07,21,20,20,18.30
2017,07,21,20,21,18.30
2017,07,21,20,22,18.30
2017,07,21,20,23,18.20
2017,07,21,20,24,18.20
2017,07,21,20,25,18.20
2017,07,21,20,26,18.20
2017,07,21,20,27,18.10
2017,07,21,20,28,18.10
2017,07,21,20,29,18.10
2017,07,21,20,30,18.10
2017,07,21,20,31,18.10
2017,07,21,20,32,18.10
2017,07,21,20,33,18.10
2017,07,21,20,34,18.00
2017,07,21,20,35,18.00
2017,07,21,20,36,18.00
2017,07,21,20,37,18.00
2017,07,21,20,38,17.90
2017,07,21,20,39,17.90
2017,07,21,20,40,17.90
2017,07,21,20,41,17.90
2017,07,21,20,42,17.90
2017,07,21,20,43,17.90
2017,07,21,20,44,17.90
2017,07,21,20,45,17.90
2017,07,21,20,46,17.80
2017,07,21,20,47,17.80
2017,07,21,20,48,17.80
2017,07,21,20,49,17.80
2017,07,21,20,50,17.80
2017,07,21,20,51,17.80
2017,07,21,20,52,17.80
2017,07,21,20,53,17.70
2017,07,21,20,54,17.70
2017,07,21,20,55,17.70
2017,07,21,20,56,17.70
2017,07,21,20,57,17.70
2017,07,21,20,58,17.70
2017,07,21,20,59,17.70
2017,07,21,21,00,17.70
2017,07,21,21,01,17.70
2017,07,21,21,02,17.70
2017,07,21,21,03,17.70
2017,07,21,21,04,17.70
2017,07,21,21,05,17.60
2017,07,21,21,06,17.60
2017,07,21,21,07,17.60
2017,07,21,21,08,17.60
2017,07,21,21,09,17.60
2017,07,21,21,10,17.60
2017,07,21,21,11,17.60
2017,07,21,21,12,17.50
2017,07,21,21,13,17.50
2017,07,21,21,14,17.50
2017,07,21,21,15,17.50
2017,07,21,21,16,17.40
2017,07,21,21,17,17.40
2017,07,21,21,18,17.40
2017,07,21,21,19,17.40
2017,07,21,21,20,17.40
2017,07,21,21,21,17.40
2017,07,21,21,22,17.40
2017,07,21,21,23,17.40
2017,07,21,21,24,17.40
2017,07,21,21,25,17.40
2017,07,21,21,26,17.40
2017,07,21,21,27,17.40
2017,07,21,21,28,17.40
2017,07,21,21,29,17.40
2017,07,21,21,30,17.40
2017,07,21,21,31,17.40
2017,07,21,21,32,17.40
2017,07,21,21,33,17.40
2017,07,21,21,34,17.40
2017,07,21,21,35,17.40
2017,07,21,21,36,17.40
2017,07,21,21,37,17.40
2017,07,21,21,38,17.40
2017,07,21,21,39,17.40
2017,07,21,21,40,17.40
2017,07,21,21,41,17.50
2017,07,21,21,42,17.50
2017,07,21,21,43,17.50
2017,07,21,21,44,17.50
2017,07,21,21,45,17.50
2017,07,21,21,46,17.50
2017,07,21,21,47,17.50
2017,07,21,21,48,17.50
2017,07,21,21,49,17.60
2017,07,21,21,50,17.60